Regional Weather Roundup
Issued by NWS Northern Indiana

Home | Current Version | Previous Version | Text Only | Print | Product List | Glossary On
Versions: 1 2 3 4 5 6 7 8 9 10 11 12 13 14 15 16 17 18 19 20 21 22 23 24 25 26 27 28 29 30 31 32 33 34 35 36 37 38 39 40 41 42 43 44 45 46 47 48 49 50
000
ASUS43 KIWX 280810
RWRIWX

KIWX WEATHER ROUNDUP
NATIONAL WEATHER SERVICE NORTHERN INDIANA
300 AM EST FRI NOV 28 2014

NOTE: "FAIR" INDICATES FEW OR NO CLOUDS BELOW 12,000 FEET WITH NO
SIGNIFICANT WEATHER AND/OR OBSTRUCTIONS TO VISIBILITY.

* THESE STATIONS ARE NOT UNDER NWS QUALITY CONTROL. THEY ALSO MAY NOT
  REPORT WEATHER SUCH AS PRECIPITATION OR FOG.

INZ001>027-280900-
NORTHERN INDIANA

CITY           SKY/WX    TMP DP  RH WIND       PRES   REMARKS
GARY*          PTCLDY    21  14  75 CALM      30.38R
VALPARAISO     PTCLDY    16  13  88 SW5       30.36R WCI   9
MICHIGAN CITY* MOCLDY    21  12  68 CALM      30.36S
LAPORTE*       PTCLDY    20  16  83 CALM      30.35S
KNOX*          PTCLDY    18  15  88 CALM      30.36S
SOUTH BEND     PTCLDY    19  12  74 W6        30.35S WCI  11
GOSHEN         PTCLDY    17  13  84 CALM      30.35S
MONTICELLO*    PTCLDY    19  17  91 W5        30.37S WCI  12
LOGANSPORT*    MOCLDY    21  12  68 CALM      30.37S
ROCHESTER*     CLEAR     23  18  80 CALM      30.36S
WARSAW*        PTCLDY    18  14  86 CALM      30.35S
ANGOLA*        CLOUDY    21  18  86 W3        30.34R
FORT WAYNE     MOCLDY    21  16  81 W6        30.37R WCI  13
HUNTINGTON*    PTCLDY    19  14  82 CALM      30.36S
MARION*          N/A     24  18  78 W6        30.36F WCI  16

$$
INZ028>050-280900-
CENTRAL INDIANA

CITY           SKY/WX    TMP DP  RH WIND       PRES   REMARKS
LAFAYETTE      CLEAR     17  15  92 CALM      30.39R
KOKOMO*        PTCLDY    21  18  86 W3        30.36F
MUNCIE*        CLOUDY    24  17  74 CALM      30.36S
INDIANAPOLIS   MOCLDY    20  16  84 SW5       30.36F WCI  13

$$
MIZ043>046-050>051-056>058-064>065-071>073-077>080-280900-
SOUTHWEST LOWER MICHIGAN

CITY           SKY/WX    TMP DP  RH WIND       PRES   REMARKS
BATTLE CREEK   CLOUDY    22   8  55 N3        30.34R
BENTON HARBOR  CLOUDY    24  14  65 NW3       30.35R
COLDWATER*     CLOUDY    23  17  76 W5        30.33R WCI  17
HILLSDALE*     CLOUDY    17  13  86 CALM      30.31R
HOLLAND        CLOUDY    21  14  74 SE3       30.35S
GRAND RAPIDS   CLOUDY    18  12  77 S5        30.34R WCI  11
KALAMAZOO      CLOUDY    21  15  78 CALM      30.34R
STURGIS*       LGT SNOW  21  18  86 W5        30.33S WCI  15
THREE RIVERS*  LGT SNOW  23  19  87 CALM      30.35R

$$
OHZ001>008-015>018-024>025-280900-
NORTHWEST OHIO

CITY           SKY/WX    TMP DP  RH WIND       PRES   REMARKS
WAUSEON*       CLOUDY    21  14  73 NW8       30.34S WCI  12
DEFIANCE       FLURRIES  24  18  77 NW5       30.36R WCI  18
FINDLAY        CLOUDY    26  17  68 NW5       30.33R WCI  20
TOLEDO EXPRESS PTCLDY    19  12  74 NW3       30.35R
TOLEDO METCALF CLEAR     20   9  62 NW13      30.35R WCI   7
LIMA           CLOUDY    25  19  78 W13       30.34R WCI  14

$$
AND FOR LAKE MICHIGAN COASTAL AND OPEN LAKE BUOY OBSERVATIONS

STATION/POSITION TEMP    WIND        PRES    VSBY  WAVE
                 AIR SEA DIR/SP/G                  HT/PER
                 (F)     (DEG/KT/KT) (MB)    (MI)  (FT/S)
CALUMET HARBOR    20     220/  4/  5 1027.1R
MICHIGAN CITY     22     150/  5/  6   N/A
SAINT JOSEPH      26     250/  5/  9 1028.1R
SOUTH LAKE BUOY   23 42  270/  4/  8 1028.7F         2/ 6

$$
&&


USA.gov is the U.S. government's official web portal to all federal, state and local government web resources and services.